Temperature
18 17 17 17 17 17 16 16 16 16 16 16 15 15 15 15 15 15 15 15 14 14 14 14 14 14 14 14 14 14 15 15 15 15 15 15 14 14 14 14 14 14 14
17 17 17 17 17 16 16 16 16 16 15 15 15 15 15 15 15 15 15 14 14 14 14 14 14 14 14 14 14 14 14 14 14 14 14 14 14 14 13 14 14 14 14
17 17 17 17 16 16 16 16 15 15 15 15 15 15 15 14 14 14 14 14 14 14 14 14 14 14 13 13 13 13 14 14 14 14 14 14 14 14 13 13 14 14 14
17 17 17 16 16 16 16 15 15 15 15 15 14 14 14 14 14 14 14 14 14 13 13 13 13 13 13 13 13 13 13 13 13 13 14 14 14 13 13 14 14 14 14
17 17 16 16 16 16 15 15 15 15 15 14 14 14 14 14 14 14 13 13 13 13 13 13 13 13 13 13 13 13 13 13 13 13 13 13 13 13 13 13 14 13 13
16 16 16 15 15 15 15 15 15 14 14 14 14 14 14 14 14 14 14 13 13 13 13 13 13 13 13 13 13 13 13 12 12 13 13 13 13 13 13 13 13 13 13
16 16 15 15 15 15 15 15 14 14 14 14 14 13 13 14 14 14 14 13 13 13 13 13 13 13 13 12 13 13 12 12 12 12 12 12 12 12 12 12 12 12 13
16 15 15 15 15 14 14 14 14 14 14 13 13 13 13 13 14 14 13 13 13 12 12 12 12 12 12 12 12 12 12 12 12 12 12 12 12 12 12 12 12 12 12
15 15 15 14 14 14 14 14 13 13 13 13 13 13 13 13 13 13 13 12 12 12 12 12 12 12 12 12 12 11 11 12 12 12 12 12 12 12 12 11 11 12 12
15 15 15 14 14 14 13 13 13 13 13 13 13 13 13 13 13 13 13 12 12 12 12 12 12 12 12 12 11 11 11 11 11 11 12 12 11 12 11 11 11 11 12
15 15 14 14 14 13 13 13 13 13 12 12 12 12 12 12 12 13 12 12 12 12 12 12 12 12 12 11 11 11 11 11 11 11 11 11 11 11 11 11 11 11 11
14 14 14 14 13 13 13 13 12 12 12 12 12 12 12 12 12 12 12 12 12 11 11 11 11 11 11 11 11 11 11 11 11 11 11 11 11 11 11 11 11 11 11
14 14 14 13 13 13 13 12 12 12 12 12 12 12 12 12 12 12 12 12 12 11 11 11 11 11 11 11 11 11 11 11 11 11 11 11 11 11 11 11 10 10 10
14 14 13 13 13 13 12 12 12 12 12 12 12 12 12 12 12 12 11 11 11 11 11 11 11 11 11 11 11 11 11 10 10 11 11 11 11 10 10 10 10 10 10
14 13 13 13 13 12 12 12 12 12 12 12 11 11 11 11 11 11 11 11 11 10 10 10 11 11 11 11 10 10 10 10 10 10 10 10 10 10 10 10 10 10 10
13 13 13 13 12 12 12 12 12 12 12 11 11 11 11 11 11 11 10 10 10 10 10 10 10 10 10 10 10 10 10 10 10 10 10 10 10 10 9 9 9 10 10
13 13 13 12 12 12 12 12 12 12 11 11 11 11 11 10 10 10 10 10 10 10 10 10 10 10 10 10 10 10 10 10 9 9 9 9 9 9 9 9 9 9 9
13 13 12 12 12 12 12 12 12 12 11 11 11 11 10 10 10 10 10 10 10 10 10 10 10 10 9 9 9 9 9 9 9 9 9 9 9 9 9 9 9 9 9
12 12 12 12 12 12 12 12 12 11 11 11 11 11 10 10 10 10 10 10 10 10 10 10 10 9 9 9 9 9 9 9 9 9 9 9 9 9 9 9 9 8 8
12 12 12 12 12 12 11 11 11 11 11 11 11 10 10 10 10 10 10 10 10 10 10 10 9 9 9 9 8 8 8 8 8 8 8 8 8 8 8 8 8 8 8
12 12 12 12 12 12 11 11 11 11 11 11 10 10 10 10 10 10 10 9 9 9 9 9 9 9 9 8 8 8 8 8 8 8 8 8 8 8 8 8 8 8 8
12 12 12 12 11 11 11 11 11 11 10 10 10 10 10 10 10 10 9 9 9 9 9 9 9 8 8 8 8 8 8 8 8 8 8 8 8 8 8 8 8 8 8
12 12 11 11 11 11 11 11 11 10 10 10 10 10 10 9 9 9 9 9 9 9 8 8 8 8 8 8 7 7 7 7 7 7 7 7 7 7 7 7 7 7 7
12 12 11 11 11 11 11 11 11 10 10 10 10 10 9 9 9 9 9 9 8 8 8 8 8 7 7 7 7 7 7 7 7 7 7 7 7 7 7 7 7 7 7
12 11 11 11 11 11 11 10 10 10 10 10 10 9 9 9 9 9 8 8 8 8 8 7 7 7 7 7 7 6 7 7 7 7 7 7 7 7 7 7 7 7 7
11 11 11 11 11 11 11 10 10 10 10 10 9 9 9 9 9 8 8 8 8 8 7 7 7 7 7 6 6 6 6 6 6 6 6 6 6 6 6 6 6 6 6
Wind_Speed
2 2 2 1 1 0 0 1 1 2 2 2 2 2 2 2 2 2 2 2 3 3 3 3 3 4 4 3 3 4 4 4 6 6 4 3 3 5 4 5 6 6 6
3 2 2 2 1 0 0 1 1 1 1 1 2 1 2 2 2 2 3 3 3 4 4 3 4 3 4 4 4 5 4 4 6 7 6 5 4 5 5 6 6 6 6
3 3 2 2 1 1 1 1 1 1 1 1 1 1 2 2 2 3 3 3 4 4 4 4 4 4 5 4 5 5 5 5 5 6 7 5 5 5 5 6 7 6 8
3 3 2 2 2 1 1 1 1 1 1 1 1 1 2 2 2 3 3 3 4 4 4 4 5 5 5 6 5 5 5 6 5 6 7 6 5 5 5 6 6 6 7
2 2 2 2 1 1 1 1 1 1 1 1 2 2 2 2 2 3 4 3 3 3 3 4 4 4 5 5 5 5 5 5 5 6 6 6 6 5 6 6 7 7 6
2 1 1 1 1 1 1 1 1 1 1 1 2 2 3 3 4 4 5 5 4 3 4 4 4 3 4 4 5 5 6 6 7 7 7 7 7 7 6 7 7 7 7
2 1 1 1 1 0 1 1 1 1 1 1 2 2 2 3 3 3 4 4 4 3 4 4 4 3 3 4 4 6 7 8 8 8 9 9 8 7 8 9 7 8 8
2 1 1 1 0 0 0 1 1 1 2 2 2 2 2 2 2 3 4 4 3 4 4 4 4 4 4 5 6 6 6 6 7 8 9 9 9 8 8 9 9 8 8
2 1 0 0 0 0 0 1 1 1 1 1 1 1 2 2 2 3 5 4 3 3 3 3 4 4 4 5 6 7 7 6 6 6 7 8 8 8 8 8 8 8 8
1 1 1 1 1 1 1 1 1 1 2 2 1 2 2 2 1 2 5 4 3 3 3 2 1 2 4 5 5 6 7 7 7 6 6 7 8 8 8 8 8 8 8
2 1 1 1 1 1 0 1 1 1 1 2 2 2 2 2 1 1 3 3 4 4 4 3 2 1 3 5 7 6 7 8 7 7 6 6 5 5 5 6 7 7 8
2 2 1 1 1 0 0 1 1 1 1 1 1 2 1 1 2 1 1 3 6 4 5 4 3 3 4 6 5 5 8 9 6 6 5 5 5 5 5 5 5 6 7
2 2 2 1 1 1 1 1 1 2 2 2 2 2 2 2 1 1 2 3 5 4 4 4 5 5 5 5 4 6 7 5 5 5 5 5 5 5 5 5 5 6 7
3 2 2 2 1 1 1 1 2 2 2 2 3 3 3 2 3 3 2 2 3 3 4 4 5 6 5 4 4 4 3 4 5 5 5 5 5 4 4 4 4 5 5
3 2 2 2 1 1 1 1 1 2 2 3 3 3 4 4 4 7 6 5 5 5 5 5 4 3 4 3 4 4 4 4 4 4 5 5 5 4 4 4 5 5 5
3 2 2 1 1 1 1 1 2 1 1 0 3 4 3 3 3 5 6 6 7 8 6 5 4 5 5 5 5 5 5 4 4 4 5 5 5 5 4 4 4 5 5
2 2 1 1 1 2 2 1 1 1 1 3 3 3 2 3 4 5 5 6 7 6 5 5 5 5 6 6 6 6 6 5 5 5 4 5 5 5 4 4 5 5 5
2 2 2 2 2 2 2 2 2 2 2 2 2 3 3 3 5 6 6 5 4 3 4 4 5 5 5 6 6 6 6 6 5 5 5 5 5 5 5 4 4 5 5
2 2 1 1 2 2 3 3 2 3 3 3 2 0 2 4 5 5 5 4 5 5 5 5 5 5 5 5 6 6 6 6 6 6 5 5 5 6 5 5 5 4 5
2 3 2 2 2 2 2 3 2 2 3 3 3 3 2 3 3 3 3 4 5 5 5 5 5 5 5 5 5 6 6 6 6 6 5 5 5 5 6 6 5 5 4
2 3 4 3 2 2 2 3 3 3 3 3 3 2 3 4 4 5 4 4 5 5 5 6 6 6 5 5 5 6 7 7 6 6 6 5 5 5 5 5 5 4 4
2 2 3 2 2 2 2 3 3 3 4 4 3 1 2 4 4 4 4 4 4 4 4 5 5 5 5 5 5 6 7 7 7 7 6 6 5 5 5 5 4 4 4
3 3 2 2 2 2 3 3 3 3 4 4 4 3 3 4 4 4 4 4 4 4 4 4 5 5 5 5 5 5 6 7 7 7 6 6 6 5 5 5 5 5 5
3 3 3 3 3 3 2 3 3 3 4 4 4 3 3 3 4 4 4 4 4 5 5 5 5 6 7 7 6 6 6 7 8 7 7 6 6 6 5 5 6 6 5
4 4 4 4 3 3 3 3 3 3 4 4 3 3 3 3 3 3 4 4 5 4 5 5 5 5 6 7 8 8 8 9 8 8 7 6 6 6 6 6 5 6 5
4 4 4 3 3 3 3 4 4 4 4 4 3 3 3 3 3 3 3 4 4 4 4 4 5 6 7 6 7 8 8 8 8 9 8 6 6 5 5 5 6 6 6
Wind_Direction
145 146 145 148 155 157 333 330 334 340 344 336 328 315 308 314 308 295 292 282 272 274 276 275 276 287 291 290 284 279 277 277 279 287 290 301 295 289 292 280 266 256 238
144 144 146 148 155 165 3 309 340 358 356 359 350 327 303 300 295 289 292 296 290 286 286 289 289 284 281 282 284 280 279 277 274 283 290 289 283 279 280 278 277 268 269
152 158 154 158 169 209 253 263 289 313 344 359 4 346 336 320 298 287 284 285 283 284 284 285 288 290 283 281 276 278 279 274 276 278 281 288 282 285 283 274 275 278 275
160 168 167 175 192 215 220 235 245 253 266 293 306 314 325 327 318 303 295 287 282 282 282 282 286 286 283 282 277 275 276 279 274 272 279 282 280 284 282 281 276 264 269
161 160 167 174 189 212 220 232 242 250 253 268 282 291 301 294 308 304 296 290 287 288 285 284 285 286 294 286 288 290 284 277 277 275 277 280 281 287 281 282 284 284 271
145 142 152 172 199 207 224 227 225 247 285 283 283 292 298 314 14 347 306 299 293 293 296 296 288 276 278 259 271 283 284 275 280 281 277 280 282 281 285 284 285 283 279
157 157 171 193 199 221 238 205 208 227 254 274 288 293 303 342 16 352 322 307 301 300 298 299 302 316 307 293 268 254 259 257 264 273 279 282 284 283 284 277 276 281 282
157 152 168 184 190 194 239 246 228 235 252 273 297 306 308 336 18 335 311 291 291 291 295 297 299 308 319 312 296 290 280 270 259 257 270 279 285 291 287 279 280 274 269
135 139 157 192 183 194 247 257 261 258 266 278 292 301 303 325 337 305 297 294 286 292 296 303 303 306 348 324 296 294 292 288 264 252 264 276 288 289 289 285 278 273 272
149 154 149 171 199 238 262 267 273 265 268 277 298 302 306 313 325 299 295 290 299 302 297 295 338 324 343 318 292 292 291 293 299 291 265 260 265 260 248 261 275 277 278
159 157 161 177 218 224 231 272 273 277 294 304 307 309 316 320 328 323 316 309 310 304 304 304 336 79 307 298 288 289 293 296 292 287 281 274 273 274 264 255 261 270 277
167 169 184 212 228 190 212 251 266 283 269 284 290 299 313 318 348 22 262 288 304 302 304 313 340 355 297 286 284 288 289 287 285 288 287 288 289 288 283 276 269 269 275
176 177 189 212 222 212 233 249 255 260 275 298 303 310 324 333 344 163 208 256 278 289 310 332 315 289 275 268 250 261 272 285 295 294 295 296 296 299 294 284 274 265 265
180 183 185 198 209 196 254 265 286 298 303 305 311 317 322 327 335 340 324 301 258 274 298 282 245 250 258 284 283 273 285 304 299 297 300 302 305 303 297 295 288 282 283
182 186 194 199 189 212 254 307 291 326 327 304 310 314 317 321 350 353 330 321 320 328 316 295 297 304 307 312 312 313 312 309 303 304 302 305 310 312 310 306 298 293 288
192 198 213 216 195 232 233 301 25 331 93 267 307 306 334 346 331 329 326 323 319 312 301 297 305 308 308 313 315 314 309 309 307 303 305 308 309 307 306 305 301 298 300
199 199 226 218 215 232 244 260 286 309 196 211 231 253 271 294 301 298 298 295 283 276 284 300 305 306 308 309 312 314 315 316 310 301 305 305 305 305 306 306 307 302 297
212 179 212 229 238 245 253 262 270 284 294 301 234 207 217 245 266 272 275 280 282 269 293 303 302 303 307 309 312 314 313 311 308 303 300 301 301 302 304 304 307 308 303
214 206 217 246 250 254 258 264 276 288 297 304 312 265 208 237 236 248 256 288 306 307 305 305 306 307 309 310 313 313 312 309 310 304 301 299 299 300 303 308 307 305 303
210 176 210 241 245 255 269 279 288 295 299 306 309 327 322 300 307 302 287 299 303 310 315 315 316 315 315 313 310 308 309 309 305 297 301 300 295 296 298 300 303 303 304
221 191 202 240 252 262 274 283 288 288 290 293 298 336 326 298 301 307 306 306 306 311 314 316 318 318 318 317 315 314 313 311 308 304 301 298 296 292 291 290 289 292 300
234 224 229 241 257 263 271 272 274 278 279 281 290 292 237 281 298 305 309 313 312 314 317 315 315 320 323 322 319 317 314 313 313 309 305 302 297 290 287 285 286 288 287
236 238 238 245 248 241 246 262 272 277 280 280 285 292 285 296 306 310 310 315 319 321 326 323 321 327 330 325 320 315 312 315 315 314 306 300 297 296 290 284 282 282 281
233 234 239 246 249 252 257 269 275 281 280 278 282 291 296 300 302 308 314 317 321 326 329 327 327 331 335 334 330 330 336 332 322 311 302 292 288 288 289 290 288 284 277
231 231 236 239 241 248 255 264 272 274 277 279 282 286 292 295 299 306 313 318 318 320 326 328 330 334 339 342 342 342 346 337 324 316 305 288 280 280 282 282 282 285 283
235 238 243 247 247 253 259 263 273 282 284 287 286 289 299 303 304 311 317 320 319 319 321 326 334 334 333 334 341 342 339 329 318 309 299 290 285 284 287 281 278 273 274
Height
1514 1514 1515 1515 1514 1514 1514 1513 1512 1512 1511 1510 1509 1508 1508 1507 1506 1505 1505 1504 1504 1504 1503 1503 1503 1502 1503 1503 1503 1502 1502 1501 1500 1500 1500 1498 1496 1495 1494 1493 1492 1491 1491
1513 1513 1513 1513 1513 1513 1513 1512 1511 1510 1509 1508 1508 1507 1506 1505 1505 1504 1503 1503 1502 1501 1501 1500 1500 1500 1500 1499 1499 1499 1499 1498 1498 1496 1496 1495 1494 1492 1491 1490 1489 1489 1488
1512 1512 1512 1512 1512 1511 1510 1510 1509 1508 1508 1507 1506 1505 1504 1504 1503 1502 1502 1501 1500 1499 1499 1498 1498 1497 1496 1497 1496 1496 1495 1495 1494 1493 1492 1492 1491 1490 1488 1487 1486 1485 1484
1510 1510 1510 1509 1509 1509 1508 1508 1507 1506 1506 1505 1504 1503 1503 1502 1501 1501 1500 1499 1498 1497 1496 1495 1495 1494 1493 1493 1493 1492 1492 1491 1491 1490 1489 1488 1487 1487 1485 1484 1483 1482 1481
1508 1508 1507 1507 1506 1506 1506 1505 1505 1504 1504 1503 1502 1502 1501 1500 1500 1499 1498 1497 1496 1495 1494 1493 1492 1491 1490 1490 1490 1489 1488 1488 1487 1486 1486 1485 1484 1483 1482 1481 1479 1478 1477
1506 1506 1505 1505 1504 1503 1503 1502 1502 1501 1501 1501 1500 1499 1499 1498 1497 1496 1495 1495 1494 1492 1491 1490 1490 1488 1487 1486 1486 1485 1485 1484 1484 1483 1482 1481 1480 1480 1479 1478 1476 1475 1473
1504 1504 1503 1503 1502 1501 1501 1500 1499 1499 1498 1498 1497 1496 1496 1495 1494 1493 1492 1492 1491 1490 1489 1488 1488 1487 1485 1484 1483 1482 1481 1480 1480 1480 1479 1477 1477 1476 1475 1474 1472 1471 1469
1502 1502 1501 1501 1500 1499 1498 1497 1497 1496 1496 1495 1494 1494 1493 1492 1491 1491 1490 1489 1489 1488 1486 1485 1484 1483 1482 1481 1480 1479 1478 1477 1476 1475 1474 1473 1472 1471 1470 1470 1468 1467 1465
1500 1500 1499 1499 1498 1497 1496 1496 1495 1494 1494 1493 1492 1491 1491 1490 1489 1489 1488 1487 1487 1485 1485 1483 1482 1481 1480 1478 1477 1476 1474 1473 1473 1471 1470 1468 1467 1466 1465 1465 1464 1464 1461
1499 1498 1498 1497 1496 1496 1495 1494 1494 1493 1492 1492 1491 1490 1489 1488 1487 1487 1486 1485 1485 1484 1482 1481 1480 1478 1477 1475 1474 1473 1471 1470 1469 1468 1466 1464 1463 1461 1460 1460 1460 1459 1458
1497 1497 1496 1496 1495 1494 1494 1493 1492 1492 1491 1490 1489 1488 1487 1486 1485 1485 1484 1483 1483 1482 1481 1480 1478 1476 1474 1472 1471 1470 1468 1467 1466 1464 1463 1461 1459 1458 1457 1456 1455 1455 1454
1495 1494 1494 1494 1494 1494 1493 1492 1491 1491 1490 1489 1488 1487 1487 1485 1484 1483 1482 1481 1480 1479 1478 1477 1475 1473 1471 1470 1468 1466 1465 1463 1463 1461 1460 1458 1457 1455 1454 1452 1451 1450 1449
1492 1492 1492 1492 1492 1492 1491 1491 1491 1490 1490 1489 1488 1487 1486 1485 1483 1481 1480 1479 1477 1477 1476 1474 1472 1470 1469 1467 1465 1463 1462 1461 1460 1458 1457 1455 1454 1452 1451 1449 1447 1446 1445
1490 1490 1490 1490 1490 1490 1490 1490 1489 1489 1488 1488 1487 1486 1485 1483 1482 1480 1479 1478 1476 1475 1473 1472 1470 1468 1466 1464 1463 1461 1459 1458 1457 1455 1454 1452 1451 1449 1447 1446 1445 1444 1442
1487 1488 1488 1488 1488 1488 1488 1488 1487 1487 1486 1486 1485 1484 1483 1482 1480 1479 1477 1476 1475 1473 1471 1470 1469 1467 1465 1463 1461 1459 1457 1455 1454 1453 1451 1449 1448 1446 1445 1443 1442 1441 1439
1486 1486 1487 1487 1487 1487 1486 1486 1485 1485 1484 1483 1482 1482 1480 1479 1477 1476 1475 1474 1472 1471 1469 1469 1467 1465 1463 1461 1459 1457 1455 1453 1451 1450 1448 1447 1445 1443 1441 1440 1438 1437 1435
1484 1484 1485 1485 1485 1485 1485 1484 1483 1483 1482 1481 1480 1479 1478 1477 1475 1474 1473 1471 1470 1468 1467 1466 1465 1463 1461 1458 1457 1454 1452 1451 1448 1447 1446 1444 1442 1441 1439 1437 1436 1434 1432
1482 1482 1483 1483 1483 1483 1483 1482 1482 1481 1480 1479 1479 1477 1476 1475 1473 1472 1470 1469 1467 1466 1465 1464 1462 1460 1458 1456 1454 1452 1450 1448 1446 1444 1443 1442 1440 1438 1437 1435 1433 1432 1430
1481 1481 1481 1481 1481 1481 1481 1480 1480 1479 1478 1478 1477 1475 1474 1472 1471 1470 1468 1467 1466 1464 1463 1461 1459 1458 1455 1453 1451 1449 1447 1445 1443 1442 1440 1439 1437 1436 1434 1433 1431 1429 1428
1479 1479 1479 1479 1479 1479 1479 1478 1477 1477 1477 1476 1475 1474 1472 1471 1470 1468 1466 1465 1463 1462 1461 1459 1457 1455 1453 1450 1448 1446 1444 1442 1440 1439 1437 1436 1434 1433 1432 1430 1429 1427 1426
1477 1477 1477 1477 1477 1477 1477 1476 1476 1475 1475 1474 1473 1471 1470 1469 1467 1466 1464 1463 1461 1460 1458 1456 1454 1452 1450 1448 1445 1443 1441 1439 1437 1435 1434 1432 1431 1430 1429 1428 1426 1425 1424
1476 1476 1476 1476 1475 1475 1475 1474 1474 1473 1472 1471 1471 1469 1467 1466 1465 1464 1462 1460 1459 1457 1456 1454 1452 1450 1448 1445 1443 1441 1438 1436 1434 1432 1431 1429 1428 1427 1426 1425 1424 1423 1422
1474 1474 1474 1474 1473 1473 1472 1472 1472 1471 1470 1469 1468 1467 1466 1464 1463 1461 1460 1458 1456 1455 1453 1451 1449 1447 1445 1443 1441 1438 1436 1433 1431 1429 1427 1426 1425 1423 1423 1422 1421 1420 1419
1472 1472 1472 1472 1471 1471 1471 1470 1470 1469 1468 1467 1466 1465 1464 1462 1461 1459 1458 1456 1454 1452 1450 1449 1447 1445 1442 1440 1438 1436 1433 1430 1428 1425 1424 1423 1422 1421 1420 1419 1418 1418 1417
1469 1469 1469 1469 1469 1468 1468 1468 1467 1466 1466 1465 1464 1463 1461 1460 1459 1457 1455 1454 1452 1450 1448 1446 1444 1442 1440 1437 1435 1433 1430 1427 1425 1423 1421 1420 1419 1418 1417 1416 1416 1415 1415
1466 1467 1467 1467 1466 1466 1466 1465 1465 1464 1463 1462 1461 1460 1459 1458 1456 1455 1453 1451 1450 1448 1446 1444 1442 1439 1437 1435 1432 1430 1427 1425 1422 1420 1418 1417 1416 1415 1414 1413 1413 1412 1412